Wind_Speed
18 18 22 23 24 22 26 24 22 14 15 19 19 20 20 17 17 16 16 14 12 14 16 9 7 2 2 1 7 15 26 26 27 29 26 28 30 32 36 48 59 58 58
28 23 23 21 22 21 20 16 15 11 12 13 14 16 16 14 12 12 14 15 17 17 15 9 8 8 10 12 14 17 20 23 26 28 30 32 32 34 37 39 45 55 65
14 27 23 22 16 15 15 15 11 9 12 16 12 11 13 14 10 10 12 14 18 20 16 10 8 11 11 12 16 20 22 23 27 29 30 31 35 38 40 42 46 48 51
17 21 24 22 19 20 19 16 12 12 15 15 10 8 9 9 8 10 11 10 8 8 9 11 11 11 13 15 17 21 23 23 23 24 25 29 29 31 34 39 46 51 54
20 22 25 25 23 26 23 19 17 16 18 12 12 11 10 7 5 7 8 9 10 10 11 12 12 13 14 16 18 19 22 23 24 26 29 28 29 30 32 36 40 43 46
30 19 22 25 22 24 25 23 19 20 21 17 16 16 15 13 13 14 14 14 14 16 18 20 19 20 20 20 21 23 25 26 28 29 32 36 38 39 41 42 43 45 48
39 41 36 32 28 26 27 28 24 22 24 23 20 21 20 21 21 20 18 20 21 23 26 28 30 31 28 28 29 31 32 34 37 42 47 50 50 54 54 53 56 55 57
43 41 41 38 32 31 33 32 28 27 27 26 23 22 24 26 26 26 25 25 28 31 32 31 32 33 36 37 38 40 42 45 50 50 53 53 53 56 59 60 61 64 66
37 39 41 37 38 39 35 33 33 33 32 31 30 30 31 35 36 36 34 35 35 36 38 41 43 44 43 43 45 46 49 51 54 57 59 59 61 67 69 69 71 72 74
41 38 42 42 41 40 41 40 36 34 37 36 37 38 41 42 43 41 40 40 45 47 49 49 50 51 52 52 53 56 57 59 62 64 66 69 73 76 74 75 75 77 80
39 46 44 40 42 42 40 42 42 43 44 43 44 45 45 46 45 47 47 49 52 54 56 57 60 59 60 61 63 64 66 69 71 74 77 79 77 75 75 77 79 82 84
39 45 49 46 44 45 47 46 46 47 49 51 52 52 54 55 55 57 59 62 64 66 64 66 65 62 63 67 69 71 75 79 81 83 83 80 79 78 80 82 84 87 91
57 53 51 51 50 49 52 52 54 55 55 54 56 56 55 56 58 58 59 61 63 66 66 69 71 71 73 75 79 81 82 83 82 82 84 83 83 83 83 87 90 93 97
59 58 53 52 51 52 54 55 56 56 58 57 58 59 62 63 64 65 66 68 70 72 74 76 78 79 82 83 84 84 83 81 81 82 84 85 88 90 92 94 96 99 102
53 53 51 53 54 52 55 57 57 58 59 60 62 64 66 67 68 71 73 74 76 79 81 82 84 85 86 86 83 81 82 83 84 86 89 92 94 97 98 100 103 99 95
44 48 51 53 52 56 56 55 57 60 62 62 64 65 67 68 69 72 76 78 78 78 78 81 80 79 80 81 83 86 88 90 91 93 94 96 99 101 102 101 96 89 83
41 46 50 51 52 53 54 56 60 66 67 68 70 73 74 77 76 76 77 77 75 77 80 80 82 83 85 87 91 93 94 96 99 100 100 102 102 101 96 87 81 74 71
38 43 48 52 55 57 55 55 56 57 58 61 63 65 68 71 72 72 74 76 80 82 83 86 89 91 92 94 96 98 101 103 104 105 103 98 94 87 80 73 71 69 64
41 43 44 47 50 53 54 55 56 58 59 61 63 65 69 72 74 76 79 83 86 87 90 91 93 94 97 99 102 103 102 101 100 97 92 86 80 75 72 69 65 60 56
50 51 54 54 54 54 56 58 61 63 64 66 69 72 75 77 80 83 86 88 90 92 94 96 100 103 105 104 103 101 97 93 89 84 80 77 75 70 65 60 58 57 56
56 59 62 62 62 62 63 67 69 72 74 76 78 80 82 84 86 90 92 93 95 97 100 103 103 103 102 100 97 93 87 81 77 76 75 71 68 66 64 62 61 61 59
63 64 65 66 67 68 68 72 73 76 80 82 83 85 87 90 91 94 97 99 103 104 104 102 100 97 94 90 86 83 82 81 77 74 72 72 71 71 70 70 69 68 67
73 75 75 76 76 77 78 78 80 81 84 87 90 92 94 96 98 100 101 101 101 101 101 99 96 91 86 83 81 80 80 79 80 81 82 82 82 81 79 78 76 76 76
81 81 82 83 82 83 84 84 86 87 89 92 93 94 94 94 95 95 96 98 98 98 93 87 85 85 85 84 83 84 86 88 87 86 83 83 82 82 83 84 83 82 81
85 85 85 86 86 87 87 88 87 89 91 90 89 88 89 92 94 94 93 92 88 85 83 83 82 81 83 85 85 85 85 84 85 86 85 83 83 82 80 80 80 81 82
88 88 89 89 88 88 88 87 86 85 88 89 91 93 91 89 88 86 84 81 80 80 80 81 81 82 81 81 82 82 82 82 81 80 78 77 75 73 72 71 71 71 73
Wind_Direction
279 243 239 253 260 264 274 280 281 286 322 315 300 289 289 292 288 287 288 279 278 318 336 318 335 347 25 272 239 248 251 261 258 260 266 269 267 264 258 247 243 248 250
255 250 255 262 264 262 272 267 259 293 308 317 309 296 290 290 287 292 287 271 278 302 312 307 276 269 247 237 245 243 251 257 264 268 271 273 273 270 265 259 253 251 255
259 253 252 269 245 276 267 263 259 285 301 307 284 300 301 293 285 285 286 286 291 293 289 296 292 270 265 273 263 267 271 274 274 274 273 272 270 267 265 265 264 263 261
254 255 263 252 253 275 270 262 264 269 291 282 278 304 305 296 299 294 292 295 296 309 311 294 290 282 272 272 274 267 271 277 276 278 274 284 278 276 273 270 267 266 268
249 250 252 258 263 275 266 256 254 262 279 271 271 286 292 293 306 294 293 292 288 294 296 294 287 284 281 279 277 272 269 269 272 274 277 274 274 274 274 273 272 272 273
249 265 269 263 261 269 266 258 247 268 275 263 267 268 272 274 273 275 285 281 279 283 287 290 289 292 284 278 278 277 276 276 276 276 278 280 280 279 277 273 271 272 272
249 251 265 268 272 269 275 256 247 254 256 258 263 263 264 267 274 282 278 274 275 280 284 284 282 282 280 277 278 279 278 275 278 283 288 284 283 280 280 280 274 273 274
259 259 264 259 259 264 269 265 249 250 251 254 254 262 277 274 275 281 276 276 273 273 276 277 279 281 282 281 281 281 280 280 283 283 293 290 286 286 283 281 280 280 279
257 258 259 257 261 262 263 262 257 253 249 253 257 264 271 279 284 282 281 282 284 283 283 281 277 275 275 277 279 281 283 287 287 288 291 292 292 291 291 288 285 284 284
264 253 257 251 254 262 264 266 257 257 256 259 261 268 275 281 285 282 283 282 283 283 283 286 285 279 277 277 281 285 288 288 289 289 290 292 293 294 291 289 287 285 287
267 261 253 255 256 262 264 263 263 267 263 263 267 270 272 273 274 276 276 276 279 283 286 287 288 286 282 282 286 289 290 292 293 293 295 296 295 292 291 290 290 290 291
261 266 258 254 256 260 264 267 265 269 273 275 275 273 276 277 279 281 282 283 283 287 287 289 288 289 290 292 292 294 295 295 295 295 295 294 293 293 292 292 292 292 292
260 265 263 258 256 257 259 263 266 269 273 275 274 276 277 279 282 284 285 288 289 291 291 293 292 293 294 294 293 293 294 296 295 294 294 294 293 292 292 292 292 293 293
255 261 263 258 263 265 262 263 266 270 271 271 273 276 279 280 287 288 290 291 290 291 292 293 293 293 293 292 292 292 293 292 292 292 292 292 292 293 293 294 294 293 293
255 257 261 263 264 268 270 271 275 276 276 278 279 282 285 286 286 287 289 289 289 290 290 290 291 291 291 291 292 292 292 292 292 292 293 293 294 294 294 295 296 294 293
259 257 259 262 267 267 269 271 272 273 276 279 278 279 282 284 284 285 286 287 288 289 290 291 291 291 292 292 292 292 292 292 292 293 294 294 295 295 296 295 295 294 291
266 264 264 268 273 273 273 273 273 270 271 274 277 279 281 283 284 285 286 287 287 289 292 291 291 291 292 292 293 294 294 295 295 295 296 296 297 297 297 295 293 290 289
278 275 272 272 274 274 275 277 279 280 281 280 282 282 282 283 285 287 289 290 290 290 291 292 294 294 294 295 295 296 296 296 297 297 297 298 297 296 296 294 294 293 290
281 280 278 276 276 278 279 280 281 282 284 283 284 285 286 286 288 290 290 290 291 293 293 295 296 296 295 296 297 297 297 297 298 297 297 298 297 297 297 296 294 292 290
280 279 279 279 279 280 282 283 283 283 282 283 284 285 287 289 290 290 291 293 293 294 295 296 296 297 298 298 298 299 298 296 297 298 298 298 298 297 295 293 291 290 289
276 277 277 279 280 281 282 283 283 285 286 287 287 287 288 289 290 291 293 294 295 295 296 297 296 297 298 298 297 297 298 298 298 298 298 296 295 294 292 291 289 287 284
277 277 278 280 281 282 282 283 286 288 289 288 288 288 289 290 292 294 294 294 295 296 297 299 300 299 298 299 300 300 300 299 298 297 296 295 293 291 289 287 286 284 283
277 279 282 283 283 283 284 286 286 287 288 290 291 291 292 294 294 294 295 296 297 300 301 301 300 301 301 301 301 300 300 300 300 300 298 297 295 294 292 290 287 285 283
279 280 282 282 283 285 286 287 289 290 290 290 290 291 292 294 296 297 297 298 299 299 300 301 301 301 301 301 301 301 301 300 298 296 293 291 288 286 285 284 283 283 281
279 279 281 282 284 286 287 288 289 288 290 291 292 293 295 295 296 296 297 298 297 298 299 300 300 300 299 299 298 297 297 296 296 296 295 294 292 290 287 284 281 280 279
279 280 281 283 285 287 288 288 290 291 291 293 294 294 295 295 296 297 297 297 298 298 298 298 298 298 298 298 299 300 299 298 298 297 296 296 294 292 291 289 286 282 279
Height
10887 10888 10890 10890 10890 10892 10893 10894 10893 10893 10890 10887 10885 10883 10882 10879 10877 10876 10875 10875 10874 10870 10867 10865 10864 10863 10862 10863 10864 10866 10867 10870 10871 10871 10871 10871 10872 10872 10872 10872 10874 10875 10876
10881 10883 10886 10887 10886 10887 10888 10888 10888 10888 10886 10885 10882 10881 10878 10876 10874 10873 10872 10871 10870 10868 10866 10863 10862 10862 10862 10862 10861 10862 10863 10863 10864 10864 10864 10864 10863 10862 10862 10862 10863 10864 10863
10876 10878 10882 10883 10883 10883 10884 10883 10883 10883 10883 10882 10880 10878 10875 10874 10872 10871 10870 10868 10867 10865 10862 10861 10860 10859 10858 10858 10858 10858 10858 10857 10856 10856 10855 10855 10854 10853 10852 10851 10850 10849 10848
10876 10877 10878 10881 10880 10880 10880 10879 10879 10879 10880 10878 10877 10876 10874 10872 10870 10869 10868 10866 10865 10863 10861 10859 10858 10857 10856 10855 10854 10853 10852 10851 10850 10849 10848 10846 10844 10843 10841 10839 10837 10836 10834
10875 10874 10874 10878 10877 10876 10876 10876 10876 10876 10876 10874 10874 10874 10874 10872 10869 10867 10866 10865 10864 10863 10861 10859 10856 10855 10854 10852 10850 10848 10846 10844 10843 10842 10840 10838 10835 10833 10830 10828 10825 10823 10821
10873 10874 10874 10874 10875 10872 10873 10874 10874 10873 10873 10871 10871 10871 10871 10870 10867 10865 10864 10863 10862 10860 10858 10856 10854 10852 10849 10847 10845 10843 10841 10839 10837 10835 10833 10831 10827 10824 10820 10815 10812 10809 10807
10868 10870 10869 10871 10871 10870 10869 10871 10870 10870 10868 10867 10866 10867 10867 10866 10864 10862 10860 10858 10856 10855 10854 10852 10849 10846 10844 10842 10839 10837 10834 10831 10828 10825 10823 10819 10815 10811 10807 10803 10799 10795 10791
10860 10862 10862 10864 10866 10864 10864 10865 10866 10865 10863 10862 10861 10861 10861 10861 10859 10857 10855 10852 10850 10848 10846 10845 10842 10839 10836 10833 10830 10826 10823 10820 10816 10812 10808 10805 10801 10796 10791 10786 10781 10776 10772
10852 10856 10856 10855 10855 10857 10857 10858 10858 10858 10857 10856 10855 10855 10854 10854 10852 10850 10848 10846 10842 10840 10837 10835 10833 10829 10825 10822 10818 10814 10810 10805 10800 10796 10792 10788 10784 10777 10771 10766 10761 10755 10750
10848 10849 10846 10848 10850 10849 10850 10850 10850 10849 10849 10848 10847 10846 10845 10843 10842 10840 10838 10837 10831 10829 10827 10824 10820 10817 10813 10808 10804 10800 10794 10789 10784 10779 10776 10771 10765 10756 10750 10743 10737 10731 10725
10840 10839 10837 10837 10838 10840 10839 10840 10841 10840 10840 10839 10838 10837 10834 10832 10829 10827 10824 10823 10821 10816 10813 10810 10806 10801 10797 10793 10789 10784 10778 10772 10765 10758 10753 10749 10743 10733 10727 10721 10714 10707 10700
10833 10827 10827 10828 10828 10828 10828 10828 10829 10830 10829 10828 10827 10825 10824 10822 10819 10815 10811 10808 10805 10802 10797 10793 10788 10784 10779 10774 10769 10764 10757 10750 10744 10737 10730 10724 10719 10716 10707 10698 10691 10682 10672
10819 10814 10814 10816 10817 10817 10817 10818 10817 10817 10816 10814 10813 10812 10810 10808 10805 10801 10798 10793 10788 10783 10778 10772 10767 10764 10760 10755 10749 10743 10736 10730 10723 10715 10707 10701 10695 10689 10684 10677 10667 10657 10647
10803 10803 10805 10805 10805 10804 10805 10804 10803 10803 10801 10799 10799 10798 10795 10791 10788 10785 10781 10778 10772 10766 10761 10755 10749 10745 10740 10733 10726 10721 10716 10709 10701 10694 10686 10678 10671 10663 10654 10646 10639 10628 10618
10788 10790 10791 10792 10793 10791 10789 10790 10790 10789 10786 10786 10785 10782 10779 10775 10772 10767 10763 10758 10753 10747 10743 10736 10730 10725 10719 10711 10703 10698 10693 10686 10678 10670 10662 10653 10643 10634 10625 10615 10603 10593 10584
10776 10777 10778 10779 10778 10777 10777 10778 10777 10776 10774 10771 10768 10765 10762 10758 10753 10749 10744 10739 10733 10728 10722 10715 10709 10703 10696 10688 10681 10673 10667 10661 10653 10643 10636 10626 10614 10604 10593 10583 10574 10562 10554
10766 10766 10767 10766 10763 10761 10762 10763 10761 10760 10758 10755 10751 10749 10745 10740 10735 10729 10724 10719 10713 10707 10699 10692 10687 10681 10674 10667 10658 10647 10638 10629 10620 10611 10602 10592 10583 10572 10562 10551 10545 10538 10531
10755 10755 10754 10753 10750 10747 10749 10749 10746 10744 10741 10737 10734 10731 10726 10720 10715 10709 10703 10697 10690 10684 10678 10671 10663 10655 10647 10639 10630 10619 10608 10598 10589 10579 10569 10560 10550 10542 10535 10526 10519 10513 10508
10746 10744 10742 10739 10737 10734 10732 10732 10730 10728 10724 10720 10716 10711 10706 10700 10693 10687 10682 10675 10668 10661 10654 10646 10638 10628 10619 10609 10601 10592 10580 10568 10557 10547 10538 10530 10523 10515 10510 10503 10496 10492 10488
10735 10732 10729 10727 10725 10722 10719 10716 10712 10709 10707 10703 10698 10692 10686 10679 10672 10665 10658 10652 10645 10637 10629 10620 10609 10597 10586 10577 10568 10560 10550 10540 10531 10521 10513 10506 10499 10493 10488 10483 10478 10474 10470
10722 10717 10713 10712 10710 10708 10704 10698 10693 10688 10685 10681 10677 10672 10664 10657 10649 10642 10635 10626 10618 10611 10602 10592 10580 10570 10559 10547 10537 10529 10520 10512 10507 10499 10491 10484 10478 10472 10466 10462 10460 10456 10452
10702 10697 10696 10696 10695 10692 10689 10684 10679 10672 10662 10659 10654 10647 10638 10631 10625 10618 10609 10599 10589 10580 10568 10558 10549 10540 10529 10520 10509 10498 10491 10486 10481 10476 10470 10462 10456 10451 10447 10441 10436 10433 10430
10682 10679 10678 10676 10674 10670 10667 10664 10659 10654 10646 10636 10626 10616 10611 10605 10598 10589 10580 10569 10558 10546 10537 10525 10514 10507 10499 10492 10486 10478 10470 10461 10453 10448 10441 10434 10428 10422 10418 10414 10410 10406 10403
10662 10660 10657 10653 10651 10648 10644 10641 10635 10629 10622 10612 10605 10596 10588 10581 10570 10560 10552 10541 10531 10520 10512 10503 10492 10482 10473 10466 10458 10450 10442 10433 10427 10421 10417 10410 10405 10399 10391 10385 10380 10376 10373
10640 10637 10635 10632 10630 10625 10620 10615 10610 10602 10592 10586 10579 10573 10565 10557 10547 10537 10528 10520 10509 10499 10489 10480 10472 10464 10454 10444 10435 10427 10418 10412 10401 10391 10383 10377 10370 10364 10360 10356 10351 10347 10343
10617 10614 10612 10608 10605 10600 10595 10590 10586 10577 10565 10560 10552 10544 10538 10530 10521 10513 10504 10496 10487 10478 10469 10459 10450 10440 10432 10423 10415 10405 10395 10385 10375 10368 10357 10347 10340 10334 10328 10323 10319 10318 10314